Regional Weather Roundup
Issued by NWS

Home | Current Version | Previous Version | Graphics & Text | Print | Product List | Glossary On
Versions: 1 2 3 4 5 6 7 8 9 10 11 12 13 14 15 16 17 18 19 20 21 22 23 24 25 26 27 28 29 30 31 32 33 34 35 36 37 38 39 40 41 42 43 44 45 46 47 48 49 50
000
ASUS43 KBIS 170410
RWRND

NORTH DAKOTA REGIONAL WEATHER ROUNDUP
NATIONAL WEATHER SERVICE BISMARCK ND
1000 PM CST MON JAN 16 2017

NOTE: "FAIR" INDICATES FEW OR NO CLOUDS BELOW 12,000 FEET WITH NO
SIGNIFICANT WEATHER AND/OR OBSTRUCTIONS TO VISIBILITY.


NDZ001>003-009>011-017-170500-
NORTHWEST NORTH DAKOTA

CITY           SKY/WX    TMP DP  RH WIND       PRES   REMARKS
WILLISTON      FAIR      10   8  92 S3        30.05F
MINOT          FAIR      18  12  77 SW15      30.02S WCI   4
$$

NDZ018>021-031>035-040>046-170500-
SOUTHWEST NORTH DAKOTA

CITY           SKY/WX    TMP DP  RH WIND       PRES   REMARKS
BISMARCK       FAIR      13   9  84 NW5       30.08S WCI   5
DICKINSON      FAIR      13   8  81 SW7       30.02F WCI   3
GARRISON         N/A     10   6  84 W6        30.05R WCI   0
HETTINGER ARPT CLOUDY     8   4  83 CALM      30.06F
$$

NDZ004>008-012>016-024-026-027-054-170500-
NORTHEAST NORTH DAKOTA

CITY           SKY/WX    TMP DP  RH WIND       PRES   REMARKS
GRAND FORKS    CLOUDY     2  -3  80 S5        30.02F WCI  -8
GRND FRKS AFB  CLOUDY     3  -1  81 W6        30.02F WCI  -8
DEVILS LAKE    FAIR       6   3  87 SW5       30.02S WCI  -3
$$

NDZ022-023-025-028>030-036>039-047>053-170500-
SOUTHEAST NORTH DAKOTA

CITY           SKY/WX    TMP DP  RH WIND       PRES   REMARKS
FARGO          CLOUDY     8   3  80 W3        30.03F
JAMESTOWN      FAIR      10   8  92 W8        30.01S WCI  -2
$$





USA.gov is the U.S. government's official web portal to all federal, state and local government web resources and services.